Time,TemperatureF,DewpointF,PressureIn,WindDirection,WindDirectionDegrees,WindSpeedMPH,WindSpeedGustMPH,Humidity,HourlyPrecipIn,Conditions,Clouds,dailyrainin,SoftwareType,DateUTC
2013-01-20 00:12:00,44.4,32.0,30.22,North,360,5.0,9.0,63,0.00,,,0.00,weatherlink.com 1.10,2013-01-20 06:12:00,
2013-01-20 00:27:00,43.7,32.0,30.23,North,5,3.0,8.0,63,0.00,,,0.00,weatherlink.com 1.10,2013-01-20 06:27:00,
2013-01-20 00:42:00,42.9,31.0,30.23,NNW,336,4.0,5.0,64,0.00,,,0.00,weatherlink.com 1.10,2013-01-20 06:42:00,
2013-01-20 00:57:00,42.0,31.0,30.24,NNW,348,3.0,6.0,65,0.00,,,0.00,weatherlink.com 1.10,2013-01-20 06:57:00,
2013-01-20 01:27:00,41.4,30.0,30.24,North,355,3.0,6.0,65,0.00,,,0.00,weatherlink.com 1.10,2013-01-20 07:27:00,
2013-01-20 01:42:00,41.1,30.0,30.24,North,355,3.0,4.0,65,0.00,,,0.00,weatherlink.com 1.10,2013-01-20 07:42:00,
2013-01-20 01:57:00,40.7,30.0,30.25,North,5,2.0,5.0,66,0.00,,,0.00,weatherlink.com 1.10,2013-01-20 07:57:00,
2013-01-20 02:12:00,40.5,30.0,30.25,North,5,2.0,4.0,66,0.00,,,0.00,weatherlink.com 1.10,2013-01-20 08:12:00,
2013-01-20 02:27:00,39.8,30.0,30.25,North,5,3.0,3.0,67,0.00,,,0.00,weatherlink.com 1.10,2013-01-20 08:27:00,
2013-01-20 02:42:00,39.1,30.0,30.25,North,5,2.0,3.0,69,0.00,,,0.00,weatherlink.com 1.10,2013-01-20 08:42:00,
2013-01-20 02:57:00,39.5,30.0,30.25,NNW,348,4.0,5.0,68,0.00,,,0.00,weatherlink.com 1.10,2013-01-20 08:57:00,
2013-01-20 03:12:00,39.5,30.0,30.26,NNW,348,6.0,16.0,68,0.00,,,0.00,weatherlink.com 1.10,2013-01-20 09:12:00,
2013-01-20 03:27:00,38.7,29.0,30.26,North,350,6.0,11.0,69,0.00,,,0.00,weatherlink.com 1.10,2013-01-20 09:27:00,
2013-01-20 03:42:00,37.9,29.0,30.26,North,5,5.0,12.0,71,0.00,,,0.00,weatherlink.com 1.10,2013-01-20 09:42:00,
2013-01-20 03:57:00,37.3,29.0,30.26,NNE,16,6.0,11.0,72,0.00,,,0.00,weatherlink.com 1.10,2013-01-20 09:57:00,
2013-01-20 04:12:00,36.8,29.0,30.26,NNE,20,9.0,11.0,74,0.00,,,0.00,weatherlink.com 1.10,2013-01-20 10:12:00,
2013-01-20 04:27:00,36.7,29.0,30.26,NNE,13,9.0,14.0,74,0.00,,,0.00,weatherlink.com 1.10,2013-01-20 10:27:00,
2013-01-20 04:42:00,36.5,29.0,30.26,NNE,21,7.0,13.0,75,0.00,,,0.00,weatherlink.com 1.10,2013-01-20 10:42:00,
2013-01-20 04:57:00,35.7,29.0,30.26,NE,36,7.0,11.0,76,0.00,,,0.00,weatherlink.com 1.10,2013-01-20 10:57:00,
2013-01-20 05:12:00,35.3,29.0,30.26,NE,34,5.0,9.0,77,0.00,,,0.00,weatherlink.com 1.10,2013-01-20 11:12:00,
2013-01-20 05:27:00,35.0,28.0,30.26,NNE,32,3.0,6.0,77,0.00,,,0.00,weatherlink.com 1.10,2013-01-20 11:27:00,
2013-01-20 05:42:00,34.5,28.0,30.27,NE,34,3.0,4.0,78,0.00,,,0.00,weatherlink.com 1.10,2013-01-20 11:42:00,
2013-01-20 05:57:00,33.8,28.0,30.26,NE,43,4.0,5.0,79,0.00,,,0.00,weatherlink.com 1.10,2013-01-20 11:57:00,
2013-01-20 06:12:00,33.6,27.0,30.27,NE,48,4.0,5.0,78,0.00,,,0.00,weatherlink.com 1.10,2013-01-20 12:12:00,
2013-01-20 06:27:00,33.2,26.0,30.27,NE,35,7.0,8.0,74,0.00,,,0.00,weatherlink.com 1.10,2013-01-20 12:27:00,
2013-01-20 06:42:00,33.1,22.0,30.27,NE,38,8.0,10.0,65,0.00,,,0.00,weatherlink.com 1.10,2013-01-20 12:42:00,
2013-01-20 06:58:00,32.7,20.0,30.28,NNE,14,6.0,11.0,61,0.00,,,0.00,weatherlink.com 1.10,2013-01-20 12:58:00,
2013-01-20 07:13:00,32.0,20.0,30.29,NNE,15,5.0,12.0,61,0.00,,,0.00,weatherlink.com 1.10,2013-01-20 13:13:00,
2013-01-20 07:28:00,31.4,20.0,30.30,NNE,15,7.0,10.0,62,0.00,,,0.00,weatherlink.com 1.10,2013-01-20 13:28:00,
2013-01-20 07:43:00,31.2,20.0,30.29,NE,40,3.0,7.0,63,0.00,,,0.00,weatherlink.com 1.10,2013-01-20 13:43:00,
2013-01-20 07:58:00,31.2,20.0,30.29,NE,34,4.0,6.0,64,0.00,,,0.00,weatherlink.com 1.10,2013-01-20 13:58:00,
2013-01-20 08:13:00,31.8,21.0,30.29,NE,46,4.0,7.0,64,0.00,,,0.00,weatherlink.com 1.10,2013-01-20 14:13:00,
2013-01-20 08:28:00,32.9,22.0,30.29,ENE,58,7.0,8.0,64,0.00,,,0.00,weatherlink.com 1.10,2013-01-20 14:28:00,
2013-01-20 08:43:00,33.7,20.0,30.29,ENE,62,4.0,11.0,57,0.00,,,0.00,weatherlink.com 1.10,2013-01-20 14:43:00,
2013-01-20 08:58:00,33.9,17.0,30.29,ENE,57,8.0,13.0,50,0.00,,,0.00,weatherlink.com 1.10,2013-01-20 14:58:00,
2013-01-20 09:13:00,34.1,17.0,30.29,ENE,76,7.0,12.0,50,0.00,,,0.00,weatherlink.com 1.10,2013-01-20 15:13:00,
2013-01-20 09:28:00,35.0,18.0,30.29,East,96,6.0,13.0,50,0.00,,,0.00,weatherlink.com 1.10,2013-01-20 15:28:00,
2013-01-20 09:43:00,36.1,16.0,30.29,ENE,77,9.0,13.0,45,0.00,,,0.00,weatherlink.com 1.10,2013-01-20 15:43:00,
2013-01-20 09:58:00,36.9,17.0,30.29,NE,46,5.0,10.0,44,0.00,,,0.00,weatherlink.com 1.10,2013-01-20 15:58:00,
2013-01-20 10:13:00,37.7,17.0,30.30,NNE,28,3.0,8.0,44,0.00,,,0.00,weatherlink.com 1.10,2013-01-20 16:13:00,
2013-01-20 10:28:00,38.5,18.0,30.30,ENE,58,4.0,8.0,43,0.00,,,0.00,weatherlink.com 1.10,2013-01-20 16:28:00,
2013-01-20 10:43:00,38.9,17.0,30.30,East,92,3.0,8.0,41,0.00,,,0.00,weatherlink.com 1.10,2013-01-20 16:43:00,
2013-01-20 10:58:00,39.5,16.0,30.29,ENE,78,2.0,9.0,39,0.00,,,0.00,weatherlink.com 1.10,2013-01-20 16:58:00,
2013-01-20 11:13:00,40.1,16.0,30.29,East,93,5.0,9.0,37,0.00,,,0.00,weatherlink.com 1.10,2013-01-20 17:13:00,
2013-01-20 11:28:00,41.0,16.0,30.28,ENE,69,3.0,7.0,36,0.00,,,0.00,weatherlink.com 1.10,2013-01-20 17:28:00,
2013-01-20 11:43:00,41.6,14.0,30.27,East,85,2.0,9.0,33,0.00,,,0.00,weatherlink.com 1.10,2013-01-20 17:43:00,
2013-01-20 11:58:00,43.2,18.0,30.25,East,85,3.0,7.0,36,0.00,,,0.00,weatherlink.com 1.10,2013-01-20 17:58:00,
2013-01-20 12:13:00,44.6,18.0,30.25,SSE,150,4.0,5.0,34,0.00,,,0.00,weatherlink.com 1.10,2013-01-20 18:13:00,
2013-01-20 12:28:00,45.5,15.0,30.24,ENE,74,5.0,8.0,29,0.00,,,0.00,weatherlink.com 1.10,2013-01-20 18:28:00,
2013-01-20 12:43:00,45.8,16.0,30.23,SE,132,3.0,5.0,30,0.00,,,0.00,weatherlink.com 1.10,2013-01-20 18:43:00,
2013-01-20 12:58:00,46.9,15.0,30.22,NE,49,4.0,7.0,28,0.00,,,0.00,weatherlink.com 1.10,2013-01-20 18:58:00,
2013-01-20 13:13:00,47.8,16.0,30.22,East,86,3.0,8.0,28,0.00,,,0.00,weatherlink.com 1.10,2013-01-20 19:13:00,
2013-01-20 13:28:00,47.5,16.0,30.21,ESE,107,1.0,5.0,28,0.00,,,0.00,weatherlink.com 1.10,2013-01-20 19:28:00,
2013-01-20 13:43:00,47.6,15.0,30.21,ENE,67,3.0,5.0,27,0.00,,,0.00,weatherlink.com 1.10,2013-01-20 19:43:00,
2013-01-20 13:58:00,47.9,15.0,30.21,NE,54,2.0,6.0,27,0.00,,,0.00,weatherlink.com 1.10,2013-01-20 19:58:00,
2013-01-20 14:13:00,48.1,15.0,30.21,NNE,21,2.0,6.0,27,0.00,,,0.00,weatherlink.com 1.10,2013-01-20 20:13:00,
2013-01-20 14:28:00,48.6,15.0,30.21,NE,53,0.0,5.0,26,0.00,,,0.00,weatherlink.com 1.10,2013-01-20 20:28:00,
2013-01-20 14:43:00,50.2,16.0,30.21,NE,39,3.0,6.0,26,0.00,,,0.00,weatherlink.com 1.10,2013-01-20 20:43:00,
2013-01-20 14:58:00,48.8,16.0,30.21,North,9,0.0,9.0,27,0.00,,,0.00,weatherlink.com 1.10,2013-01-20 20:58:00,
2013-01-20 15:13:00,48.2,16.0,30.21,NNE,24,9.0,11.0,28,0.00,,,0.00,weatherlink.com 1.10,2013-01-20 21:13:00,
2013-01-20 15:29:00,47.9,17.0,30.21,ENE,57,4.0,9.0,29,0.00,,,0.00,weatherlink.com 1.10,2013-01-20 21:29:00,
2013-01-20 15:44:00,47.5,17.0,30.22,NE,41,6.0,9.0,29,0.00,,,0.00,weatherlink.com 1.10,2013-01-20 21:44:00,
2013-01-20 15:59:00,47.3,16.0,30.21,ENE,71,3.0,8.0,29,0.00,,,0.00,weatherlink.com 1.10,2013-01-20 21:59:00,
2013-01-20 16:14:00,46.7,17.0,30.21,NNE,26,6.0,11.0,30,0.00,,,0.00,weatherlink.com 1.10,2013-01-20 22:14:00,
2013-01-20 16:29:00,45.9,16.0,30.22,NE,35,7.0,11.0,30,0.00,,,0.00,weatherlink.com 1.10,2013-01-20 22:29:00,
2013-01-20 16:44:00,45.4,16.0,30.22,NNE,31,6.0,9.0,31,0.00,,,0.00,weatherlink.com 1.10,2013-01-20 22:44:00,
2013-01-20 16:59:00,44.4,17.0,30.22,NNE,28,6.0,9.0,33,0.00,,,0.00,weatherlink.com 1.10,2013-01-20 22:59:00,
2013-01-20 17:14:00,43.4,17.0,30.22,NE,38,4.0,9.0,34,0.00,,,0.00,weatherlink.com 1.10,2013-01-20 23:14:00,
2013-01-20 17:29:00,42.4,16.0,30.22,NE,38,4.0,5.0,35,0.00,,,0.00,weatherlink.com 1.10,2013-01-20 23:29:00,
2013-01-20 17:44:00,41.3,16.0,30.23,NE,35,6.0,9.0,36,0.00,,,0.00,weatherlink.com 1.10,2013-01-20 23:44:00,
2013-01-20 17:59:00,40.0,16.0,30.23,NNE,32,6.0,10.0,38,0.00,,,0.00,weatherlink.com 1.10,2013-01-20 23:59:00,
2013-01-20 18:14:00,39.2,15.0,30.23,NE,51,6.0,10.0,38,0.00,,,0.00,weatherlink.com 1.10,2013-01-21 00:14:00,
2013-01-20 18:29:00,38.4,15.0,30.23,NNE,33,5.0,12.0,39,0.00,,,0.00,weatherlink.com 1.10,2013-01-21 00:29:00,
2013-01-20 18:44:00,37.4,16.0,30.24,NE,42,7.0,10.0,41,0.00,,,0.00,weatherlink.com 1.10,2013-01-21 00:44:00,
2013-01-20 18:59:00,36.6,16.0,30.24,NNE,30,7.0,12.0,43,0.00,,,0.00,weatherlink.com 1.10,2013-01-21 00:59:00,
2013-01-20 19:14:00,35.9,17.0,30.24,NE,51,6.0,13.0,46,0.00,,,0.00,weatherlink.com 1.10,2013-01-21 01:14:00,
2013-01-20 19:29:00,35.1,18.0,30.25,North,5,6.0,12.0,49,0.00,,,0.00,weatherlink.com 1.10,2013-01-21 01:29:00,
2013-01-20 19:44:00,34.1,18.0,30.25,NNE,21,7.0,11.0,53,0.00,,,0.00,weatherlink.com 1.10,2013-01-21 01:44:00,
2013-01-20 19:59:00,33.2,18.0,30.25,NNE,28,7.0,10.0,55,0.00,,,0.00,weatherlink.com 1.10,2013-01-21 01:59:00,
2013-01-20 20:14:00,32.6,19.0,30.26,NE,37,6.0,11.0,57,0.00,,,0.00,weatherlink.com 1.10,2013-01-21 02:14:00,
2013-01-20 20:29:00,31.9,18.0,30.27,NE,37,6.0,11.0,57,0.00,,,0.00,weatherlink.com 1.10,2013-01-21 02:29:00,
2013-01-20 20:44:00,31.0,17.0,30.27,NNE,28,5.0,11.0,57,0.00,,,0.00,weatherlink.com 1.10,2013-01-21 02:44:00,
2013-01-20 20:59:00,30.3,16.0,30.27,NE,36,9.0,13.0,55,0.00,,,0.00,weatherlink.com 1.10,2013-01-21 02:59:00,
2013-01-20 21:14:00,29.8,14.0,30.28,NNE,22,5.0,11.0,53,0.00,,,0.00,weatherlink.com 1.10,2013-01-21 03:14:00,
2013-01-20 21:29:00,29.2,15.0,30.29,NNE,24,11.0,12.0,55,0.00,,,0.00,weatherlink.com 1.10,2013-01-21 03:29:00,
2013-01-20 21:44:00,28.5,14.0,30.30,NNE,20,7.0,15.0,55,0.00,,,0.00,weatherlink.com 1.10,2013-01-21 03:44:00,
2013-01-20 21:59:00,27.9,15.0,30.31,NNE,16,7.0,13.0,58,0.00,,,0.00,weatherlink.com 1.10,2013-01-21 03:59:00,
2013-01-20 22:14:00,27.5,15.0,30.31,North,11,9.0,13.0,59,0.00,,,0.00,weatherlink.com 1.10,2013-01-21 04:14:00,
2013-01-20 22:29:00,27.0,15.0,30.32,NNE,27,6.0,16.0,60,0.00,,,0.00,weatherlink.com 1.10,2013-01-21 04:29:00,
2013-01-20 22:44:00,26.7,15.0,30.32,NNE,26,7.0,11.0,61,0.00,,,0.00,weatherlink.com 1.10,2013-01-21 04:44:00,
2013-01-20 22:59:00,26.3,14.0,30.33,NNE,16,9.0,12.0,61,0.00,,,0.00,weatherlink.com 1.10,2013-01-21 04:59:00,
2013-01-20 23:14:00,26.0,14.0,30.33,North,360,6.0,10.0,62,0.00,,,0.00,weatherlink.com 1.10,2013-01-21 05:14:00,
2013-01-20 23:29:00,26.0,14.0,30.33,NNE,21,10.0,14.0,61,0.00,,,0.00,weatherlink.com 1.10,2013-01-21 05:29:00,
2013-01-20 23:44:00,25.6,14.0,30.33,NNE,17,7.0,11.0,62,0.00,,,0.00,weatherlink.com 1.10,2013-01-21 05:44:00,
2013-01-20 23:59:00,25.2,14.0,30.33,NNE,33,5.0,10.0,63,0.00,,,0.00,weatherlink.com 1.10,2013-01-21 05:59:00,